STARLINK-4723, 53797

Orbit data source: Space-Track

STARLINK-4723, 53797 is a payload satellite owned by SpaceX/Seattle (US) in LEO that was launched on Sun, 11 Sep 2022 UTC via an FALCON 9 launch vehicle from the Air Force Eastern Test Range (AFETR). Payload-class satellites include a variety of spacecraft equipped with specific instruments for various scientific and technological missions. These include communications satellites like Starlink; space stations such as the ISS; scientific satellites like the Hubble; Earth observation satellites from companies like Planet Labs, Umbra, and HawkEye 360; GPS; miniature CubeSats for education and research; and military/defense satellites.

Loading next visibility...
Identifier
53797, 2022-111AA
Orbit
LEO
Last TLE update
9 hours ago
Origin
Manufacturer
SpaceX/Seattle
Mission
Operational Commercial Communications
Bus & Motor
STARLINK, Unknown motor
Mass
305 kg wet, ~290 kg dry
Launch date (UTC)
2022-09-11 (3 years ago)
Launch vehicle
FALCON 9
Launch site
Air Force Eastern Test Range (AFETR)
Object type
Payload
Rocket body
Debris
Shape & HBR
Box + 1 Pan, 8.86 m
Radar Cross Section
13.562 m², Large (>1 m²)

Expand to show TLE details & history

TLE from 9 hours ago
0 STARLINK-4723
1 53797U 22111AA  25186.62307309 -.00001269  00000-0 -61685-4 0  9990
2 53797  53.2179 302.8108 0001286  90.3760 269.7379 15.08833108156387
Epoch: 2025-07-05T14:57Z
TLE epoch observation values (Epoch: 2025-07-05T14:57:13.514Z)
Latitude
-0.00009°
Longitude
154.64596°
Altitude
540.666 km
Speed
7.593 km/s
True Right ascension
20h 11m 14s
True Declination
0° 00' 00"
Sunlit
Object was in full shadow at epoch
Visualization orbit readout
Latitude
-34.28197°
Longitude
122.44408°
Altitude
551.248 km
Speed
7.586 km/s
Apparent Right ascension
20h 49m 29s
Apparent Declination
-47° 16' 40"
Sunlit
Object is in full shadow
Visualization observer readout
Local Sidereal Time
12:14:14
Azimuth
118.799° SE
Elevation
-52.894°
Doppler factor
1
Orbital elements
Apogee altitude
540.899 km
Perigee altitude
539.12 km
Semi-major axis
6,918.146 km
Eccentricity
0.00013
Inclination
53.2179°
RAAN
302.8108°
Arg. of periapsis
90.376°
True anomaly
Unknown
Mean anomaly
269.7379°
Eccentric anomaly
Unknown
Mean motion
3.77189 °/min
Orbital period
95.44 mins
BSTAR
-0.000061685
Loading maneuver chart data...
Loading SW <> Apogee altitude chart data...
Loading historical data...
Loading historical data...
Loading historical data...
Loading historical data...
Loading historical data...
Loading historical data...
Loading historical data...

STARLINK-4723 Visibility forecast

Observer location: undefined°, undefined°

Span
Click to sort rows by Start time (UTC) header in descending order
Start Az.
Max El. time (UTC)
Max El. Az.
Max El.
End time (UTC)
End Az.
7 mins2025-07-06 10:11:45.106Z216.197° SW2025-07-06 10:14:45.106Z175.526° S39.993°2025-07-06 10:18:45.106Z56.681° ENE
5 mins2025-07-06 11:52:45.106Z291.579° WNW2025-07-06 11:54:45.106Z331.732° NNW22.697°2025-07-06 11:57:45.106Z26.547° NE
4 mins2025-07-06 15:14:45.106Z353.723° N2025-07-06 15:15:45.106Z11.256° NNE16.275°2025-07-06 15:18:45.106Z59.298° ENE
6 mins2025-07-06 16:53:45.106Z323.043° NNW2025-07-06 16:55:45.106Z10.606° NNE40.032°2025-07-06 16:59:45.106Z116.802° SE
4 mins2025-07-06 18:33:45.106Z257.469° W2025-07-06 18:34:45.106Z239.306° WSW17.309°2025-07-06 18:37:45.106Z190.03° SSW
|